Location: Chervonnoye
(48.6000°N, 34.4000°E)
Time: 04:07:36
(UTC+00:00)

YUBILEINY - Visible Passes

Search period start: 06 December 2021 00:00
Search period end: 16 December 2021 00:00
Orbit: 1478 x 1508 km, 82.5° (Epoch: 05 December)

Date Brightness Start Highest point End Pass type
(mag) Time Alt. Az. Time Alt. Az. Time Alt. Az.
06 Dec ? 15:06:36 10° WSW 15:13:55 29° WNW 15:21:20 10° N visible
07 Dec ? 14:15:19 10° SW 14:23:38 47° WNW 14:32:05 10° N visible
07 Dec ? 16:20:06 10° WNW 16:23:19 12° NW 16:26:33 10° NNW visible
08 Dec ? 15:26:08 10° W 15:32:17 20° NW 15:38:30 10° N visible
09 Dec ? 14:34:00 10° SW 14:41:42 33° WNW 14:49:29 10° N visible
10 Dec ? 15:46:31 10° WNW 15:50:52 14° NW 15:55:16 10° NNW visible
11 Dec ? 14:53:16 10° WSW 14:59:58 24° WNW 15:06:45 10° N visible
13 Dec ? 15:13:14 10° W 15:18:28 17° NW 15:23:44 10° NNW visible
14 Dec ? 14:20:31 10° WSW 14:27:43 27° WNW 14:34:58 10° N visible
15 Dec ? 15:34:30 10° WNW 15:37:12 11° NW 15:39:55 10° NNW visible
